Time,TemperatureF,DewpointF,PressureIn,WindDirection,WindDirectionDegrees,WindSpeedMPH,WindSpeedGustMPH,Humidity,HourlyPrecipIn,Conditions,Clouds,dailyrainin,SoftwareType,DateUTC
2013-11-06 00:01:00,49.5,47.0,29.87,WNW,298,8.0,8.0,92,0.25,,,0.00,weatherlink.com 1.10,2013-11-06 06:01:00,
2013-11-06 00:16:00,47.5,46.0,29.87,NW,309,2.0,6.0,93,0.23,,,0.06,weatherlink.com 1.10,2013-11-06 06:16:00,
2013-11-06 00:31:00,46.1,44.0,29.88,NW,319,0.0,6.0,93,0.22,,,0.11,weatherlink.com 1.10,2013-11-06 06:31:00,
2013-11-06 00:46:00,44.5,43.0,29.90,NW,321,0.0,7.0,93,0.18,,,0.16,weatherlink.com 1.10,2013-11-06 06:46:00,
2013-11-06 01:01:00,43.5,42.0,29.92,NNW,341,0.0,7.0,94,0.17,,,0.18,weatherlink.com 1.10,2013-11-06 07:01:00,
2013-11-06 01:16:00,42.4,41.0,29.91,NW,309,0.0,3.0,94,0.14,,,0.20,weatherlink.com 1.10,2013-11-06 07:16:00,
2013-11-06 01:31:00,41.6,40.0,29.91,NW,312,0.0,6.0,94,0.10,,,0.21,weatherlink.com 1.10,2013-11-06 07:31:00,
2013-11-06 01:46:00,41.4,40.0,29.92,NW,304,0.0,3.0,95,0.05,,,0.21,weatherlink.com 1.10,2013-11-06 07:46:00,
2013-11-06 02:01:00,40.6,39.0,29.93,North,354,1.0,6.0,94,0.04,,,0.22,weatherlink.com 1.10,2013-11-06 08:01:00,
2013-11-06 02:16:00,40.2,39.0,29.96,NW,316,0.0,5.0,94,0.02,,,0.22,weatherlink.com 1.10,2013-11-06 08:16:00,
2013-11-06 02:32:00,39.9,38.0,29.95,NW,317,7.0,8.0,94,0.01,,,0.22,weatherlink.com 1.10,2013-11-06 08:32:00,
2013-11-06 02:46:00,39.3,38.0,29.96,NNW,339,1.0,5.0,95,0.01,,,0.22,weatherlink.com 1.10,2013-11-06 08:46:00,
2013-11-06 03:02:00,38.9,37.0,29.95,NW,325,0.0,7.0,94,0.00,,,0.22,weatherlink.com 1.10,2013-11-06 09:02:00,
2013-11-06 03:17:00,38.4,37.0,29.94,WNW,300,1.0,8.0,95,0.00,,,0.22,weatherlink.com 1.10,2013-11-06 09:17:00,
2013-11-06 03:32:00,38.1,37.0,29.96,North,356,0.0,10.0,95,0.00,,,0.22,weatherlink.com 1.10,2013-11-06 09:32:00,
2013-11-06 03:47:00,37.9,36.0,29.97,West,263,1.0,10.0,94,0.00,,,0.22,weatherlink.com 1.10,2013-11-06 09:47:00,
2013-11-06 04:02:00,37.7,36.0,29.96,West,279,2.0,9.0,93,0.00,,,0.22,weatherlink.com 1.10,2013-11-06 10:02:00,
2013-11-06 04:17:00,37.6,36.0,29.97,NW,311,2.0,8.0,94,0.00,,,0.22,weatherlink.com 1.10,2013-11-06 10:17:00,
2013-11-06 04:32:00,37.6,36.0,29.98,WNW,297,2.0,8.0,94,0.00,,,0.22,weatherlink.com 1.10,2013-11-06 10:32:00,
2013-11-06 04:47:00,37.4,36.0,30.00,NW,304,0.0,11.0,94,0.00,,,0.22,weatherlink.com 1.10,2013-11-06 10:47:00,
2013-11-06 05:02:00,37.4,36.0,30.01,North,360,1.0,7.0,94,0.00,,,0.22,weatherlink.com 1.10,2013-11-06 11:02:00,
2013-11-06 05:17:00,37.5,36.0,30.01,WNW,295,0.0,10.0,93,0.00,,,0.22,weatherlink.com 1.10,2013-11-06 11:17:00,
2013-11-06 05:32:00,37.5,36.0,30.03,NW,316,3.0,8.0,93,0.00,,,0.22,weatherlink.com 1.10,2013-11-06 11:32:00,
2013-11-06 05:47:00,37.5,35.0,30.04,WNW,298,1.0,8.0,92,0.00,,,0.22,weatherlink.com 1.10,2013-11-06 11:47:00,
2013-11-06 06:02:00,37.4,35.0,30.06,NW,326,0.0,9.0,92,0.00,,,0.22,weatherlink.com 1.10,2013-11-06 12:02:00,
2013-11-06 06:17:00,37.4,35.0,30.06,NW,307,2.0,9.0,91,0.00,,,0.22,weatherlink.com 1.10,2013-11-06 12:17:00,
2013-11-06 06:32:00,37.2,35.0,30.06,NW,308,0.0,5.0,91,0.00,,,0.22,weatherlink.com 1.10,2013-11-06 12:32:00,
2013-11-06 06:47:00,37.0,35.0,30.06,WNW,297,1.0,6.0,93,0.00,,,0.22,weatherlink.com 1.10,2013-11-06 12:47:00,
2013-11-06 07:02:00,36.9,35.0,30.07,WNW,296,2.0,7.0,92,0.00,,,0.22,weatherlink.com 1.10,2013-11-06 13:02:00,
2013-11-06 07:17:00,37.0,35.0,30.08,NW,304,0.0,5.0,92,0.00,,,0.22,weatherlink.com 1.10,2013-11-06 13:17:00,
2013-11-06 07:32:00,37.2,35.0,30.09,West,276,1.0,6.0,91,0.00,,,0.22,weatherlink.com 1.10,2013-11-06 13:32:00,
2013-11-06 07:47:00,37.3,35.0,30.11,NW,306,2.0,7.0,91,0.00,,,0.22,weatherlink.com 1.10,2013-11-06 13:47:00,
2013-11-06 08:02:00,37.4,35.0,30.12,NW,308,2.0,10.0,89,0.00,,,0.22,weatherlink.com 1.10,2013-11-06 14:02:00,
2013-11-06 08:17:00,37.6,35.0,30.12,NW,307,0.0,4.0,90,0.00,,,0.22,weatherlink.com 1.10,2013-11-06 14:17:00,
2013-11-06 08:32:00,37.6,34.0,30.13,NW,320,1.0,9.0,88,0.00,,,0.22,weatherlink.com 1.10,2013-11-06 14:32:00,
2013-11-06 08:47:00,37.7,35.0,30.13,NW,304,1.0,6.0,88,0.00,,,0.22,weatherlink.com 1.10,2013-11-06 14:47:00,
2013-11-06 09:02:00,37.6,34.0,30.14,NW,314,5.0,8.0,88,0.00,,,0.22,weatherlink.com 1.10,2013-11-06 15:02:00,
2013-11-06 09:18:00,37.6,34.0,30.15,NNW,343,0.0,10.0,88,0.00,,,0.22,weatherlink.com 1.10,2013-11-06 15:18:00,
2013-11-06 09:33:00,37.7,34.0,30.16,WNW,295,0.0,6.0,87,0.00,,,0.22,weatherlink.com 1.10,2013-11-06 15:33:00,
2013-11-06 09:48:00,38.0,35.0,30.17,WNW,294,0.0,7.0,87,0.00,,,0.22,weatherlink.com 1.10,2013-11-06 15:48:00,
2013-11-06 10:03:00,38.4,35.0,30.17,WSW,258,0.0,5.0,86,0.00,,,0.22,weatherlink.com 1.10,2013-11-06 16:03:00,
2013-11-06 10:18:00,38.8,35.0,30.18,NW,319,0.0,4.0,86,0.00,,,0.22,weatherlink.com 1.10,2013-11-06 16:18:00,
2013-11-06 10:33:00,39.1,35.0,30.18,NW,309,0.0,7.0,84,0.00,,,0.22,weatherlink.com 1.10,2013-11-06 16:33:00,
2013-11-06 10:48:00,39.4,35.0,30.19,WNW,285,0.0,7.0,85,0.00,,,0.22,weatherlink.com 1.10,2013-11-06 16:48:00,
2013-11-06 11:03:00,39.5,35.0,30.19,WNW,301,2.0,8.0,83,0.00,,,0.22,weatherlink.com 1.10,2013-11-06 17:03:00,
2013-11-06 11:18:00,39.6,36.0,30.20,West,274,0.0,6.0,85,0.00,,,0.22,weatherlink.com 1.10,2013-11-06 17:18:00,
2013-11-06 11:33:00,39.6,35.0,30.20,NW,309,6.0,7.0,82,0.00,,,0.22,weatherlink.com 1.10,2013-11-06 17:33:00,
2013-11-06 11:48:00,40.1,35.0,30.20,WNW,295,0.0,6.0,82,0.00,,,0.22,weatherlink.com 1.10,2013-11-06 17:48:00,
2013-11-06 12:03:00,40.2,35.0,30.20,NW,308,0.0,5.0,82,0.00,,,0.22,weatherlink.com 1.10,2013-11-06 18:03:00,
2013-11-06 12:18:00,40.6,35.0,30.20,WNW,295,1.0,6.0,81,0.00,,,0.22,weatherlink.com 1.10,2013-11-06 18:18:00,
2013-11-06 12:33:00,40.6,35.0,30.20,SW,219,0.0,7.0,80,0.00,,,0.22,weatherlink.com 1.10,2013-11-06 18:33:00,
2013-11-06 12:48:00,41.1,36.0,30.20,SW,225,0.0,7.0,82,0.00,,,0.22,weatherlink.com 1.10,2013-11-06 18:48:00,
2013-11-06 13:03:00,41.8,36.0,30.20,WSW,246,0.0,4.0,79,0.00,,,0.22,weatherlink.com 1.10,2013-11-06 19:03:00,
2013-11-06 13:18:00,42.2,36.0,30.20,WNW,294,0.0,7.0,78,0.00,,,0.22,weatherlink.com 1.10,2013-11-06 19:18:00,
2013-11-06 13:33:00,42.5,35.0,30.21,WNW,298,0.0,7.0,74,0.00,,,0.22,weatherlink.com 1.10,2013-11-06 19:33:00,
2013-11-06 13:48:00,43.3,36.0,30.20,WNW,285,0.0,4.0,76,0.00,,,0.22,weatherlink.com 1.10,2013-11-06 19:48:00,
2013-11-06 14:03:00,42.8,35.0,30.21,WNW,288,0.0,5.0,73,0.00,,,0.22,weatherlink.com 1.10,2013-11-06 20:03:00,
2013-11-06 14:18:00,43.3,35.0,30.22,WNW,288,1.0,6.0,73,0.00,,,0.22,weatherlink.com 1.10,2013-11-06 20:18:00,
2013-11-06 14:33:00,44.0,36.0,30.22,SW,225,1.0,2.0,74,0.00,,,0.22,weatherlink.com 1.10,2013-11-06 20:33:00,
2013-11-06 14:48:00,43.8,36.0,30.23,West,278,0.0,3.0,73,0.00,,,0.22,weatherlink.com 1.10,2013-11-06 20:48:00,
2013-11-06 15:03:00,43.9,35.0,30.22,WNW,296,0.0,1.0,72,0.00,,,0.22,weatherlink.com 1.10,2013-11-06 21:03:00,
2013-11-06 15:18:00,44.1,36.0,30.22,WSW,252,0.0,2.0,74,0.00,,,0.22,weatherlink.com 1.10,2013-11-06 21:18:00,
2013-11-06 15:33:00,44.3,36.0,30.22,North,351,0.0,1.0,72,0.00,,,0.22,weatherlink.com 1.10,2013-11-06 21:33:00,
2013-11-06 15:48:00,44.2,36.0,30.23,WNW,288,0.0,2.0,72,0.00,,,0.22,weatherlink.com 1.10,2013-11-06 21:48:00,
2013-11-06 16:03:00,44.3,36.0,30.23,NW,307,0.0,1.0,73,0.00,,,0.22,weatherlink.com 1.10,2013-11-06 22:03:00,
2013-11-06 16:18:00,44.3,36.0,30.24,NW,316,0.0,4.0,72,0.00,,,0.22,weatherlink.com 1.10,2013-11-06 22:18:00,
2013-11-06 16:33:00,44.3,36.0,30.24,NW,310,0.0,1.0,73,0.00,,,0.22,weatherlink.com 1.10,2013-11-06 22:33:00,
2013-11-06 16:48:00,44.1,36.0,30.24,WNW,297,0.0,1.0,73,0.00,,,0.22,weatherlink.com 1.10,2013-11-06 22:48:00,
2013-11-06 17:03:00,43.7,36.0,30.23,WNW,300,0.0,0.0,74,0.00,,,0.22,weatherlink.com 1.10,2013-11-06 23:03:00,
2013-11-06 17:18:00,43.2,36.0,30.23,WNW,300,0.0,0.0,76,0.00,,,0.22,weatherlink.com 1.10,2013-11-06 23:18:00,
2013-11-06 17:33:00,42.9,36.0,30.23,WNW,300,0.0,0.0,77,0.00,,,0.22,weatherlink.com 1.10,2013-11-06 23:33:00,
2013-11-06 17:48:00,42.4,36.0,30.24,WNW,300,0.0,0.0,78,0.00,,,0.22,weatherlink.com 1.10,2013-11-06 23:48:00,
2013-11-06 18:03:00,41.2,36.0,30.24,WNW,300,0.0,0.0,80,0.00,,,0.22,weatherlink.com 1.10,2013-11-07 00:03:00,
2013-11-06 18:18:00,40.1,35.0,30.25,WNW,300,0.0,0.0,82,0.00,,,0.22,weatherlink.com 1.10,2013-11-07 00:18:00,
2013-11-06 18:33:00,40.0,35.0,30.25,WNW,300,0.0,0.0,83,0.00,,,0.22,weatherlink.com 1.10,2013-11-07 00:33:00,
2013-11-06 18:48:00,39.8,35.0,30.25,WNW,300,0.0,0.0,83,0.00,,,0.22,weatherlink.com 1.10,2013-11-07 00:48:00,
2013-11-06 19:03:00,38.9,35.0,30.26,WNW,300,0.0,0.0,85,0.00,,,0.22,weatherlink.com 1.10,2013-11-07 01:03:00,
2013-11-06 19:18:00,38.3,35.0,30.27,WNW,300,0.0,0.0,87,0.00,,,0.22,weatherlink.com 1.10,2013-11-07 01:18:00,
2013-11-06 19:33:00,37.6,34.0,30.27,WNW,300,0.0,0.0,88,0.00,,,0.22,weatherlink.com 1.10,2013-11-07 01:33:00,
2013-11-06 19:48:00,37.3,34.0,30.27,WNW,300,0.0,0.0,88,0.00,,,0.22,weatherlink.com 1.10,2013-11-07 01:48:00,
2013-11-06 20:03:00,37.2,34.0,30.27,WNW,300,0.0,0.0,88,0.00,,,0.22,weatherlink.com 1.10,2013-11-07 02:03:00,
2013-11-06 20:18:00,36.5,34.0,30.27,WNW,300,0.0,0.0,90,0.00,,,0.22,weatherlink.com 1.10,2013-11-07 02:18:00,
2013-11-06 20:34:00,36.1,34.0,30.27,WNW,300,0.0,0.0,91,0.00,,,0.22,weatherlink.com 1.10,2013-11-07 02:34:00,
2013-11-06 20:49:00,36.1,34.0,30.28,WNW,300,0.0,0.0,91,0.00,,,0.22,weatherlink.com 1.10,2013-11-07 02:49:00,
2013-11-06 21:04:00,36.4,34.0,30.29,WNW,300,0.0,0.0,90,0.00,,,0.22,weatherlink.com 1.10,2013-11-07 03:04:00,
2013-11-06 21:19:00,36.6,34.0,30.29,WNW,300,0.0,0.0,89,0.00,,,0.22,weatherlink.com 1.10,2013-11-07 03:19:00,
2013-11-06 21:34:00,36.6,34.0,30.30,WNW,300,0.0,0.0,89,0.00,,,0.22,weatherlink.com 1.10,2013-11-07 03:34:00,
2013-11-06 21:49:00,36.2,33.0,30.30,SW,221,0.0,0.0,89,0.00,,,0.22,weatherlink.com 1.10,2013-11-07 03:49:00,
2013-11-06 22:04:00,36.0,33.0,30.31,SW,225,0.0,0.0,90,0.00,,,0.22,weatherlink.com 1.10,2013-11-07 04:04:00,
2013-11-06 22:19:00,35.8,33.0,30.32,SW,227,0.0,0.0,90,0.00,,,0.22,weatherlink.com 1.10,2013-11-07 04:19:00,
2013-11-06 22:34:00,35.7,33.0,30.31,SW,226,0.0,0.0,90,0.00,,,0.22,weatherlink.com 1.10,2013-11-07 04:34:00,
2013-11-06 22:49:00,35.2,33.0,30.31,SW,226,0.0,0.0,90,0.00,,,0.22,weatherlink.com 1.10,2013-11-07 04:49:00,
2013-11-06 23:04:00,34.8,33.0,30.32,SW,226,0.0,0.0,91,0.00,,,0.22,weatherlink.com 1.10,2013-11-07 05:04:00,
2013-11-06 23:19:00,34.2,32.0,30.32,SW,226,0.0,0.0,91,0.00,,,0.22,weatherlink.com 1.10,2013-11-07 05:19:00,
2013-11-06 23:34:00,33.8,32.0,30.32,SW,226,0.0,0.0,92,0.00,,,0.22,weatherlink.com 1.10,2013-11-07 05:34:00,
2013-11-06 23:49:00,33.4,31.0,30.32,SW,226,0.0,0.0,92,0.00,,,0.22,weatherlink.com 1.10,2013-11-07 05:49:00,